Victorville, CA

1:20 PM PDT on August 21, 2017 (GMT -0700)
Southern California Logistics

Weather History for KVCV - October, 2013

Change the Weather History Date:

Monday, October 14, 2013

  Actual Average (KSBD) Record (KSBD)
Temperature  
Mean Temperature 55 °F -  
Max Temperature 71 °F 82 °F 98 °F (2016)
Min Temperature 39 °F 51 °F 46 °F (2013)
Degree Days  
Heating Degree Days 10    
Growing Degree Days 5 (Base 50)    
Moisture  
Dew Point 27 °F    
Average Humidity 39    
Maximum Humidity 71    
Minimum Humidity 16    
Precipitation  
Precipitation 0.00 in - - ()
Sea Level Pressure  
Sea Level Pressure 30.10 in    
Wind  
Wind Speed 4 mph (NE)    
Max Wind Speed 13 mph    
Max Gust Speed 20 mph    
Visibility 10 miles    
Events      
Averages and records for this station are not official NWS values.
T = Trace of Precipitation, MM = Missing Value Source: NWS Daily Summary

Daily Weather History Graph

Daily Weather History Graph

Search for Another Location

Airport or City:

Trip Planner

Search our weather history database for the weather conditions in past years. The results will help you decide how hot, cold, wet, or windy it might be!

Date:

Astronomy

Oct. 14, 2013 Rise Set
Actual Time 6:54 AM PDT 6:15 PM PDT
Civil Twilight 6:29 AM PDT 6:41 PM PDT
Nautical Twilight 5:59 AM PDT 7:10 PM PDT
Astronomical Twilight 5:30 AM PDT 7:39 PM PDT
Moon 3:39 PM PDT (10/14) 2:26 AM PDT (10/14)
Length of Visible Light 12h 11m
Length of Day
11h 21m
Waxing Gibbous, 80% of the Moon is Illuminated
Oct 14
Waxing Gibbous
Oct 18
Full
Oct 26
Last Quarter
Nov 3
New
Nov 9
First Quarter

Hourly Weather History & Observations

Time (PDT) Temp. Windchill Dew Point Humidity Pressure Visibility Wind Dir Wind Speed Gust Speed Precip Events Conditions
12:15 AM 46.4 °F 44.3 °F 32.0 °F 57% 30.08 in 10.0 mi South 4.6 mph - N/A   Unknown
12:35 AM 46.4 °F 44.3 °F 33.8 °F 62% 30.08 in 10.0 mi SSW 4.6 mph - N/A   Unknown
12:55 AM 44.6 °F 42.2 °F 35.6 °F 71% 30.08 in 10.0 mi SSW 4.6 mph - N/A   Unknown
1:15 AM 44.6 °F 43.1 °F 35.6 °F 71% 30.09 in 10.0 mi SW 3.5 mph - N/A   Unknown
1:35 AM 44.6 °F - 35.6 °F 71% 30.09 in 10.0 mi Calm Calm - N/A   Unknown
1:55 AM 44.6 °F - 35.6 °F 71% 30.09 in 10.0 mi Calm Calm - N/A   Unknown
2:15 AM 42.8 °F 40.1 °F 33.8 °F 70% 30.09 in 10.0 mi SSW 4.6 mph - N/A   Unknown
2:35 AM 42.8 °F - 33.8 °F 70% 30.09 in 10.0 mi Calm Calm - N/A   Unknown
2:55 AM 42.8 °F - 33.8 °F 70% 30.09 in 10.0 mi Calm Calm - N/A   Unknown
3:15 AM 42.8 °F - 33.8 °F 70% 30.09 in 10.0 mi Calm Calm - N/A   Unknown
3:35 AM 42.8 °F - 33.8 °F 70% 30.10 in 10.0 mi Calm Calm - N/A   Unknown
3:55 AM 39.2 °F - 30.2 °F 70% 30.10 in 10.0 mi Calm Calm - N/A   Unknown
4:15 AM 41.0 °F - 32.0 °F 70% 30.10 in 10.0 mi Calm Calm - N/A   Unknown
4:35 AM 39.2 °F 37.0 °F 30.2 °F 70% 30.10 in 10.0 mi SW 3.5 mph - N/A   Unknown
4:55 AM 39.2 °F 35.9 °F 30.2 °F 70% 30.10 in 10.0 mi SW 4.6 mph - N/A   Unknown
5:15 AM 39.2 °F 37.0 °F 30.2 °F 70% 30.11 in 10.0 mi SSW 3.5 mph - N/A   Unknown
5:35 AM 39.2 °F - 30.2 °F 70% 30.11 in 10.0 mi Calm Calm - N/A   Unknown
5:55 AM 41.0 °F - 30.2 °F 65% 30.12 in 10.0 mi Calm Calm - N/A   Unknown
6:15 AM 44.6 °F 43.1 °F 30.2 °F 57% 30.13 in 10.0 mi South 3.5 mph - N/A   Unknown
6:35 AM 41.0 °F - 28.4 °F 61% 30.13 in 10.0 mi Calm Calm - N/A   Unknown
6:55 AM 41.0 °F - 30.2 °F 65% 30.13 in 10.0 mi Calm Calm - N/A   Unknown
7:15 AM 42.8 °F - 30.2 °F 61% 30.14 in 10.0 mi Calm Calm - N/A   Unknown
7:35 AM 42.8 °F - 30.2 °F 61% 30.14 in 3.0 mi Calm Calm - N/A   Haze
7:55 AM 44.6 °F 43.1 °F 30.2 °F 57% 30.15 in 10.0 mi South 3.5 mph - N/A   Unknown
8:15 AM 46.4 °F - 33.8 °F 62% 30.15 in 10.0 mi Calm Calm - N/A   Unknown
8:35 AM 50.0 °F - 33.8 °F 54% 30.16 in 10.0 mi South 3.5 mph - N/A   Unknown
8:55 AM 51.8 °F - 33.8 °F 50% 30.16 in 10.0 mi Calm Calm - N/A   Unknown
9:15 AM 53.6 °F - 33.8 °F 47% 30.16 in 10.0 mi Calm Calm - N/A   Unknown
9:35 AM 55.4 °F - 32.0 °F 41% 30.16 in 10.0 mi Calm Calm - N/A   Unknown
9:55 AM 59.0 °F - 30.2 °F 34% 30.17 in 10.0 mi NNW 3.5 mph - N/A   Unknown
10:15 AM 60.8 °F - 30.2 °F 31% 30.17 in 10.0 mi North 6.9 mph - N/A   Unknown
10:35 AM 62.6 °F - 30.2 °F 30% 30.16 in 10.0 mi NNE 10.4 mph - N/A   Unknown
10:55 AM 64.4 °F - 28.4 °F 26% 30.16 in 10.0 mi NNE 10.4 mph - N/A   Unknown
11:15 AM 64.4 °F - 30.2 °F 28% 30.16 in 10.0 mi NNE 8.1 mph - N/A   Unknown
11:35 AM 66.2 °F - 28.4 °F 24% 30.15 in 10.0 mi NE 12.7 mph - N/A   Unknown
11:55 AM 68.0 °F - 28.4 °F 23% 30.14 in 10.0 mi ENE 10.4 mph 18.4 mph N/A   Unknown
12:15 PM 68.0 °F - 26.6 °F 21% 30.14 in 10.0 mi NE 10.4 mph 17.3 mph N/A   Unknown
12:35 PM 69.8 °F - 26.6 °F 20% 30.14 in 10.0 mi NE 11.5 mph 16.1 mph N/A   Unknown
12:55 PM 69.8 °F - 26.6 °F 20% 30.12 in 10.0 mi NNE 10.4 mph 17.3 mph N/A   Unknown
1:15 PM 69.8 °F - 26.6 °F 20% 30.11 in 10.0 mi NNE 9.2 mph 19.6 mph N/A   Unknown
1:35 PM 69.8 °F - 26.6 °F 20% 30.10 in 10.0 mi North 12.7 mph - N/A   Unknown
1:55 PM 69.8 °F - 24.8 °F 18% 30.09 in 10.0 mi NNE 10.4 mph 17.3 mph N/A   Unknown
2:15 PM 71.6 °F - 24.8 °F 17% 30.09 in 10.0 mi NE 10.4 mph - N/A   Unknown
2:35 PM 71.6 °F - 24.8 °F 17% 30.08 in 10.0 mi NE 10.4 mph - N/A   Unknown
2:55 PM 71.6 °F - 24.8 °F 17% 30.08 in 10.0 mi North 6.9 mph - N/A   Unknown
3:15 PM 71.6 °F - 24.8 °F 17% 30.07 in 10.0 mi North 6.9 mph - N/A   Unknown
3:35 PM 71.6 °F - 24.8 °F 17% 30.07 in 10.0 mi ENE 5.8 mph - N/A   Unknown
3:55 PM 71.6 °F - 24.8 °F 17% 30.06 in 10.0 mi NE 10.4 mph - N/A   Unknown
4:15 PM 71.6 °F - 24.8 °F 17% 30.06 in 10.0 mi NE 9.2 mph - N/A   Unknown
4:35 PM 69.8 °F - 24.8 °F 18% 30.05 in 10.0 mi NNE 5.8 mph 10.4 mph N/A   Unknown
4:55 PM 69.8 °F - 23.0 °F 17% 30.05 in 10.0 mi ENE 8.1 mph 17.3 mph N/A   Unknown
5:15 PM 69.8 °F - 23.0 °F 17% 30.05 in 10.0 mi ENE 9.2 mph - N/A   Unknown
5:35 PM 69.8 °F - 21.2 °F 16% 30.05 in 10.0 mi NE 8.1 mph - N/A   Unknown
5:55 PM 68.0 °F - 23.0 °F 18% 30.05 in 10.0 mi NE 8.1 mph - N/A   Unknown
6:15 PM 66.2 °F - 24.8 °F 21% 30.06 in 10.0 mi ENE 6.9 mph - N/A   Unknown
6:35 PM 64.4 °F - 23.0 °F 21% 30.06 in 10.0 mi ENE 5.8 mph - N/A   Unknown
6:55 PM 64.4 °F - 23.0 °F 21% 30.06 in 10.0 mi ENE 5.8 mph - N/A   Unknown
7:15 PM 62.6 °F - 23.0 °F 22% 30.06 in 10.0 mi ENE 6.9 mph - N/A   Unknown
7:35 PM 60.8 °F - 23.0 °F 23% 30.07 in 10.0 mi East 4.6 mph - N/A   Unknown
7:55 PM 60.8 °F - 23.0 °F 23% 30.07 in 10.0 mi East 4.6 mph - N/A   Unknown
8:15 PM 60.8 °F - 21.2 °F 22% 30.07 in 10.0 mi ENE 4.6 mph - N/A   Unknown
8:35 PM 59.0 °F - 21.2 °F 23% 30.08 in 10.0 mi ENE 5.8 mph - N/A   Unknown
8:55 PM 59.0 °F - 21.2 °F 23% 30.08 in 10.0 mi ENE 4.6 mph - N/A   Unknown
9:15 PM 59.0 °F - 21.2 °F 23% 30.09 in 10.0 mi East 3.5 mph - N/A   Unknown
9:35 PM 60.8 °F - 21.2 °F 22% 30.09 in 10.0 mi Calm Calm - N/A   Unknown
9:55 PM 60.8 °F - 21.2 °F 22% 30.09 in 10.0 mi East 3.5 mph - N/A   Unknown
10:15 PM 51.8 °F - 19.4 °F 28% 30.09 in 10.0 mi Calm Calm - N/A   Unknown
10:35 PM 50.0 °F - 19.4 °F 30% 30.09 in 10.0 mi West 3.5 mph - N/A   Unknown
10:55 PM 51.8 °F - 21.2 °F 30% 30.09 in 10.0 mi Calm Calm - N/A   Unknown
11:15 PM 48.2 °F - 19.4 °F 32% 30.08 in 10.0 mi WSW 5.8 mph - N/A   Unknown
11:35 PM 48.2 °F - 19.4 °F 32% 30.08 in 10.0 mi WSW 4.6 mph - N/A   Unknown
11:55 PM 46.4 °F 45.2 °F 19.4 °F 34% 30.09 in 10.0 mi SW 3.5 mph - N/A   Unknown